User: anonymous   Login
Location: Sungai Anya
(2.6167°N, 114.0500°E)
Time: 15:11:48
(UTC+00:00)
Language:

CZ-4B R/B - Orbit

View from above orbital plane
View from above orbital plane
View from above satellite
View from above satellite

Ground track
Ground track

The orbit data is extracted from the following two-line orbital elements,

1 29093U 06015B   22020.33217345  .00012389  00000-0  19595-3 0  9994
2 29093  97.6179 230.3934 0046915   9.2299 350.9804 15.52323138876636
Epoch (UTC): 20 January 2022 07:58:19
Eccentricity: 0.0046915
inclination: 97.6179°
perigee height: 378 km
apogee height: 442 km
right ascension of ascending node: 230.3934°
argument of perigee: 9.2299°
revolutions per day: 15.52323138
mean anomaly at epoch: 350.9804°
orbit number at epoch: 87663

The dashed part of the orbit path shows where the satellite is in the earth's shadow,  

DLR